Location: Newark
(48.2308°N, 120.8549°W)
Time: 22:48:23
(UTC+00:00)

Transit 2A Rocket - Pass Details

Date: 31 May 2020
Orbit: 584 x 919 km, 66.7° (Epoch: 10 July)

Event Time Altitude Azimuth Distance (km) Brightness Sun altitude
Rises 15:49:41 0° 319° (NW) 3,514 8.1 34.1°
Reaches altitude 10° 15:52:23 10° 310° (NW) 2,596 7.4 34.6°
Maximum altitude 15:57:45 33° 249° (WSW) 1,490 6.4 35.5°
Drops below altitude 10° 16:03:07 10° 187° (S) 2,595 7.8 36.4°
Sets 16:05:49 0° 178° (S) 3,514 8.5 36.8°
